Location: Unspecified
(0.0000°N, 0.0000°E)
Time: 03:30:50
(UTC+00:00)

YAOGAN 20C - Pass Details

Date: 25 April 2026
Orbit: 800 x 1378 km, 63.4° (Epoch: 11 May)

Event Time Altitude Azimuth Distance (km) Brightness Sun altitude
Rises 19:10:58 0° 185° (S) 3,487 7.7 -17.7°
Reaches altitude 10° 19:13:51 10° 174° (S) 2,480 6.8 -18.4°
Enters shadow 19:16:51 24° 147° (SSE) 1,643 5.7 -19.2°
